Flag for Colombia Weather past 2 weeks in Cali, Colombia

Now
84 °F

Broken clouds.


Feels Like: 87 °F
Forecast: N/A
Wind: 6 mph from North

Location: Cali / Alfonso Bonillaaragon


UV Index: N/A

Visibility: N/A


Pressure: 29.91 "Hg

Humidity: 58%

Dew point: 68 °F

Location of CaliLocation

Historic Weather in Cali

°F

Cali temperature yesterday

Maximum temperature yesterday: 88 °F (at 2:00 PM)
Minimum temperature yesterday: 68 °F (at 4:00 AM)
Average temperature yesterday: 75 °F

Past Weeks' High & Low Weather Summary

 TemperatureHumidityPressure
High93 °F (Apr 8, 1:00 PM)100% (Apr 9, 1:00 AM)30.06 "Hg (Apr 9, 1:00 AM)
Low64 °F (Apr 13, 4:00 AM)38% (Apr 4, 2:00 PM)29.77 "Hg (Apr 11, 5:00 PM)
Average76 °F77%29.93 "Hg
* Reported Apr 4 1:00 PM — Apr 19 1:00 PM, Cali, Weather by CustomWeather, © 2014

Note: Actual official high and low records may vary slightly from our data, if they occured in-between our weather recording intervals... More about our weather records

Advertising

Historic Weather Conditions — Data for Previous 24 hours

 ConditionsComfort  
Time TempWeatherWind HumidityBarometerVisibility
1:00 PM
Apr 19
84 °FBroken clouds.6 mph58%29.91 "HgN/A
12:00 PM82 °FScattered clouds.3 mph66%29.96 "Hg6 mi
11:00 AM81 °FScattered clouds.3 mph70%29.98 "Hg6 mi
10:00 AM77 °FScattered clouds.5 mph79%29.99 "Hg5 mi
9:00 AM75 °FScattered clouds.3 mph83%30.00 "Hg2 mi
8:00 AM70 °FBroken clouds.3 mph88%30.01 "Hg4 mi
7:00 AM68 °FPartly sunny.No wind94%29.98 "Hg4 mi
6:00 AM68 °FPartly sunny.2 mph94%29.95 "Hg6 mi
5:00 AM68 °FPassing clouds.No wind88%29.96 "Hg6 mi
4:00 AM68 °FPassing clouds.No wind94%29.95 "Hg6 mi
3:00 AM68 °FPassing clouds.3 mph94%29.95 "Hg6 mi
2:00 AM68 °FPassing clouds.3 mph88%29.95 "Hg6 mi
1:00 AM68 °FPassing clouds.No wind94%29.95 "HgN/A
12:00 AM68 °FPartly cloudy.3 mph94%29.99 "HgN/A
11:00 PM
Apr 18
68 °FPartly cloudy.2 mph94%29.98 "HgN/A
10:00 PM68 °FPartly cloudy.3 mph94%29.96 "Hg6 mi
9:00 PM70 °FScattered showers. Partly cloudy.3 mph94%29.94 "Hg6 mi
8:00 PM70 °FScattered showers. Partly cloudy.2 mph94%29.92 "Hg6 mi
7:00 PM70 °FPartly cloudy.5 mph94%29.91 "Hg5 mi
6:00 PM70 °FThunderstorms. Broken clouds.9 mph94%29.88 "Hg6 mi
5:00 PM77 °FThunderstorms. Broken clouds.9 mph69%29.85 "Hg6 mi
4:00 PM82 °FScattered showers. Broken clouds.14 mph62%29.81 "Hg6 mi
3:00 PM86 °FScattered showers. Broken clouds.14 mph55%29.82 "Hg6 mi
2:00 PM88 °FScattered showers. Broken clouds.7 mph55%29.85 "Hg6 mi
Weather by CustomWeather, © 2014

See weather overview